TimeAKST,TemperatureF,Dew PointF,Humidity,Sea Level PressureIn,VisibilityMPH,Wind Direction,Wind SpeedMPH,Gust SpeedMPH,PrecipitationIn,Events,Conditions,WindDirDegrees,DateUTC
12:16 AM,-9.4,-22.0,54,29.90,10.0,East,5.8,-,N/A,,Scattered Clouds,80,2012-11-04 08:16:00
12:36 AM,-9.4,-23.8,49,29.90,10.0,ENE,6.9,-,N/A,,Overcast,70,2012-11-04 08:36:00
12:56 AM,-9.4,-9999,N/A,29.89,10.0,ENE,8.1,-,N/A,,Scattered Clouds,70,2012-11-04 08:56:00
1:16 AM,-7.6,-9999,N/A,29.89,10.0,ENE,8.1,-,N/A,,Clear,70,2012-11-04 09:16:00
1:36 AM,-7.6,-9999,N/A,29.88,10.0,ENE,9.2,-,N/A,,Partly Cloudy,60,2012-11-04 09:36:00
1:56 AM,-7.6,-9999,N/A,29.88,10.0,ENE,10.4,-,N/A,,Clear,60,2012-11-04 09:56:00
1:16 AM,-7.6,-9999,N/A,29.88,10.0,ENE,6.9,-,N/A,,Clear,60,2012-11-04 10:16:00
1:36 AM,-9.4,-9999,N/A,29.87,10.0,ENE,8.1,-,N/A,,Clear,70,2012-11-04 10:36:00
1:56 AM,-7.6,-31.0,31,29.87,10.0,NE,6.9,-,N/A,,Clear,50,2012-11-04 10:56:00
2:16 AM,-9.4,-29.2,37,29.86,10.0,ENE,5.8,-,N/A,,Clear,60,2012-11-04 11:16:00
3:36 AM,-9.4,-25.6,45,29.86,10.0,East,3.5,-,N/A,,Mostly Cloudy,80,2012-11-04 12:36:00
3:56 AM,-7.6,-22.0,50,29.85,10.0,NE,4.6,-,N/A,,Overcast,50,2012-11-04 12:56:00
4:16 AM,-7.6,-23.8,45,29.85,10.0,East,3.5,-,N/A,,Overcast,80,2012-11-04 13:16:00
4:36 AM,-5.8,-18.4,55,29.84,10.0,NE,6.9,-,N/A,,Overcast,50,2012-11-04 13:36:00
4:56 AM,-5.8,-20.2,50,29.84,10.0,ENE,4.6,-,N/A,,Overcast,70,2012-11-04 13:56:00
5:16 AM,-5.8,-18.4,55,29.84,10.0,NE,5.8,-,N/A,,Overcast,50,2012-11-04 14:16:00
5:36 AM,-5.8,-18.4,55,29.84,10.0,NE,6.9,-,N/A,,Overcast,50,2012-11-04 14:36:00
5:56 AM,-5.8,-16.6,60,29.83,10.0,ENE,8.1,-,N/A,,Overcast,70,2012-11-04 14:56:00
6:16 AM,-5.8,-20.2,50,29.83,10.0,East,8.1,-,N/A,,Overcast,80,2012-11-04 15:16:00
6:36 AM,-4.0,-11.2,71,29.82,10.0,ENE,9.2,-,N/A,,Overcast,70,2012-11-04 15:36:00
6:56 AM,-5.8,-25.6,38,29.81,10.0,ENE,10.4,-,N/A,,Overcast,60,2012-11-04 15:56:00
7:16 AM,-5.8,-16.6,60,29.81,10.0,ENE,8.1,-,N/A,,Mostly Cloudy,60,2012-11-04 16:16:00
7:36 AM,-5.8,-16.6,60,29.80,10.0,NE,10.4,-,N/A,,Overcast,50,2012-11-04 16:36:00
7:56 AM,-5.8,-27.4,35,29.80,10.0,ENE,8.1,-,N/A,,Overcast,60,2012-11-04 16:56:00
8:16 AM,-5.8,-14.8,65,29.79,10.0,ENE,4.6,-,N/A,,Mostly Cloudy,60,2012-11-04 17:16:00
8:36 AM,-5.8,-27.4,35,29.79,10.0,ENE,8.1,-,N/A,,Mostly Cloudy,60,2012-11-04 17:36:00
8:56 AM,-5.8,-9999,N/A,29.79,10.0,NE,3.5,-,N/A,,Overcast,50,2012-11-04 17:56:00
9:16 AM,-5.8,-9999,N/A,29.79,10.0,Calm,Calm,-,N/A,,Overcast,0,2012-11-04 18:16:00
9:36 AM,-5.8,-9999,N/A,29.79,10.0,East,4.6,-,N/A,,Overcast,90,2012-11-04 18:36:00
9:56 AM,-5.8,-9999,N/A,29.79,10.0,NNE,3.5,-,N/A,,Overcast,30,2012-11-04 18:56:00
10:16 AM,-5.8,-29.2,32,29.78,10.0,East,6.9,-,N/A,,Overcast,80,2012-11-04 19:16:00
10:36 AM,-4.0,-27.4,32,29.78,10.0,NE,6.9,-,N/A,,Overcast,50,2012-11-04 19:36:00
10:56 AM,-2.2,-27.4,29,29.77,10.0,NE,5.8,-,N/A,,Overcast,50,2012-11-04 19:56:00
11:16 AM,-2.2,-25.6,32,29.77,10.0,East,3.5,-,N/A,,Overcast,80,2012-11-04 20:16:00
11:36 AM,-5.8,-25.6,38,29.77,10.0,Calm,Calm,-,N/A,,Scattered Clouds,0,2012-11-04 20:36:00
11:56 AM,-5.8,-25.6,38,29.77,10.0,NE,3.5,-,N/A,,Partly Cloudy,40,2012-11-04 20:56:00
12:16 PM,-7.6,-25.6,41,29.77,10.0,Calm,Calm,-,N/A,,Mostly Cloudy,0,2012-11-04 21:16:00
12:36 PM,-5.8,-20.2,50,29.76,10.0,Calm,Calm,-,N/A,,Mostly Cloudy,0,2012-11-04 21:36:00
12:56 PM,-5.8,-23.8,42,29.76,10.0,ENE,6.9,-,N/A,,Partly Cloudy,70,2012-11-04 21:56:00
1:16 PM,-4.0,-16.6,55,29.75,10.0,ENE,5.8,-,N/A,,Scattered Clouds,60,2012-11-04 22:16:00
1:36 PM,-4.0,-20.2,46,29.75,10.0,ENE,6.9,-,N/A,,Partly Cloudy,60,2012-11-04 22:36:00
1:56 PM,-4.0,-18.4,50,29.74,10.0,ENE,5.8,-,N/A,,Clear,60,2012-11-04 22:56:00
2:16 PM,-4.0,-16.6,55,29.73,10.0,ENE,8.1,-,N/A,,Clear,60,2012-11-04 23:16:00
2:36 PM,-4.0,-22.0,42,29.73,10.0,ENE,6.9,-,N/A,,Clear,70,2012-11-04 23:36:00
2:56 PM,-5.8,-16.6,60,29.73,10.0,East,5.8,-,N/A,,Clear,80,2012-11-04 23:56:00
3:16 PM,-5.8,-20.2,50,29.73,10.0,ENE,4.6,-,N/A,,Clear,70,2012-11-05 00:16:00
3:36 PM,-5.8,-23.8,42,29.73,10.0,ENE,3.5,-,N/A,,Clear,60,2012-11-05 00:36:00
3:56 PM,-7.6,-13.0,77,29.72,10.0,ENE,5.8,-,N/A,,Clear,70,2012-11-05 00:56:00
4:16 PM,-7.6,-29.2,34,29.72,10.0,ENE,4.6,-,N/A,,Clear,60,2012-11-05 01:16:00
4:36 PM,-7.6,-7.6,100,29.72,10.0,East,3.5,-,N/A,,Clear,80,2012-11-05 01:36:00
4:56 PM,-9.4,-9999,N/A,29.72,10.0,Calm,Calm,-,N/A,,Clear,0,2012-11-05 01:56:00
5:16 PM,-9.4,-9999,N/A,29.72,10.0,Calm,Calm,-,N/A,,Clear,0,2012-11-05 02:16:00
5:36 PM,-9.4,-9999,N/A,29.72,10.0,ENE,3.5,-,N/A,,Clear,70,2012-11-05 02:36:00
5:56 PM,-9.4,-14.8,77,29.72,10.0,Calm,Calm,-,N/A,,Clear,0,2012-11-05 02:56:00
6:16 PM,-9.4,-25.6,45,29.72,10.0,Calm,Calm,-,N/A,,Clear,0,2012-11-05 03:16:00
6:36 PM,-11.2,-9999,N/A,29.72,10.0,Calm,Calm,-,N/A,,Clear,0,2012-11-05 03:36:00
6:56 PM,-11.2,-9999,N/A,29.72,10.0,Calm,Calm,-,N/A,,Clear,0,2012-11-05 03:56:00
7:16 PM,-11.2,-9999,N/A,29.73,10.0,Calm,Calm,-,N/A,,Clear,0,2012-11-05 04:16:00
7:36 PM,-11.2,-9999,N/A,29.73,10.0,Calm,Calm,-,N/A,,Clear,0,2012-11-05 04:36:00
7:56 PM,-13.0,-9999,N/A,29.73,10.0,Calm,Calm,-,N/A,,Clear,0,2012-11-05 04:56:00
8:16 PM,-11.2,-9999,N/A,29.73,10.0,Calm,Calm,-,N/A,,Clear,0,2012-11-05 05:16:00
8:36 PM,-11.2,-9999,N/A,29.73,10.0,Calm,Calm,-,N/A,,Clear,0,2012-11-05 05:36:00
8:56 PM,-14.8,-9999,N/A,29.74,10.0,Calm,Calm,-,N/A,,Clear,0,2012-11-05 05:56:00
9:16 PM,-11.2,-31.0,37,29.74,10.0,Calm,Calm,-,N/A,,Clear,0,2012-11-05 06:16:00
9:36 PM,-13.0,-29.2,44,29.74,10.0,East,3.5,-,N/A,,Clear,100,2012-11-05 06:36:00
9:56 PM,-13.0,-27.4,49,29.75,10.0,Calm,Calm,-,N/A,,Clear,0,2012-11-05 06:56:00
10:16 PM,-13.0,-27.4,49,29.75,10.0,East,3.5,-,N/A,,Clear,90,2012-11-05 07:16:00
10:36 PM,-13.0,-27.4,49,29.76,10.0,Calm,Calm,-,N/A,,Clear,0,2012-11-05 07:36:00
10:56 PM,-14.8,-27.4,53,29.76,10.0,Calm,Calm,-,N/A,,Clear,0,2012-11-05 07:56:00